This is the latest recevied weather packets stored in our database for station/object W1SCW. If no packets are shown the sender has not sent any weather packets the latest 1 day(s).
| Time | Temp. | Humidity | Pressure | Rain* | Wind** | Luminosity | Snow |
|---|---|---|---|---|---|---|---|
| 1778080886 | 27.22° C | 86% | 1008.7 hPa | 0 mm | - | 128 W/m² | - |
| 1778080281 | 26.67° C | 85% | 1008.5 hPa | 0 mm | - | 194 W/m² | - |
| 1778079978 | 27.22° C | 86% | 1008.4 hPa | 0 mm | - | 182 W/m² | - |
| 1778077858 | 26.67° C | 89% | 1007.8 hPa | 0 mm | - | 184 W/m² | - |
| 1778077254 | 26.11° C | 90% | 1007.8 hPa | 0 mm | - | 235 W/m² | - |
| 1778076044 | 25.56° C | 92% | 1008.1 hPa | 0 mm | - | 196 W/m² | - |
| 1778073618 | 25° C | 95% | 1008.2 hPa | 0 mm | - | 82 W/m² | - |
| 1778073315 | 25° C | 96% | 1008.5 hPa | 0 mm | - | 71 W/m² | - |
| 1778072708 | 24.44° C | 96% | 1008.2 hPa | 0 mm | - | 66 W/m² | - |
| 1778072406 | 24.44° C | 97% | 1008.3 hPa | 0 mm | - | 66 W/m² | - |
| 1778071801 | 24.44° C | 98% | 1008.3 hPa | 0 mm | - | 61 W/m² | - |
| 1778071499 | 24.44° C | 98% | 1008.2 hPa | 0 mm | - | 51 W/m² | - |
| 1778070592 | 23.89° C | 98% | 1008.1 hPa | 0 mm | - | 32 W/m² | - |
| 1778069987 | 23.89° C | 98% | 1007.9 hPa | 0 mm | - | 20 W/m² | - |
| 1778069078 | 23.89° C | 98% | 1007.9 hPa | 0 mm | - | 14 W/m² | - |
| 1778068473 | 23.33° C | 98% | 1007.4 hPa | 0 mm | - | 11 W/m² | - |
| 1778068171 | 23.33° C | 98% | 1007.5 hPa | 0 mm | - | 7 W/m² | - |
| 1778066659 | 23.33° C | 98% | 1007.4 hPa | 0 mm | - | 0 W/m² | - |
| 1778065750 | 23.33° C | 98% | 1007.2 hPa | 0 mm | - | 0 W/m² | - |
| 1778064538 | 23.89° C | 97% | 1006.8 hPa | 0 mm | - | 0 W/m² | - |
| 1778064236 | 23.89° C | 97% | 1006.8 hPa | 0 mm | - | 0 W/m² | - |
| 1778063631 | 23.89° C | 96% | 1006.9 hPa | 0 mm | - | 0 W/m² | - |
| 1778063328 | 23.89° C | 96% | 1006.9 hPa | 0 mm | - | 0 W/m² | - |
| 1778063026 | 23.89° C | 96% | 1007 hPa | 0 mm | - | 0 W/m² | - |
| 1778062723 | 23.89° C | 96% | 1006.9 hPa | 0 mm | - | 0 W/m² | - |
* Rain latest hour (hover to see other rain measurements)
** Current wind speed in m/s (hover to see current wind gust speed)